QPF
0.00 0.00 0.00 0.00 0.00 0.00 0.00 0.00 0.00 0.00 0.00 0.00 0.00 0.00 0.00 0.00 0.00 0.00 0.00 0.00 0.00 0.00
0.00 0.00 0.00 0.00 0.00 0.00 0.00 0.00 0.00 0.00 0.00 0.00 0.00 0.00 0.00 0.00 0.00 0.00 0.00 0.00 0.00 0.00
0.00 0.00 0.00 0.00 0.00 0.00 0.00 0.00 0.00 0.00 0.00 0.00 0.00 0.00 0.00 0.00 0.00 0.00 0.00 0.00 0.00 0.00
0.00 0.00 0.00 0.00 0.00 0.00 0.00 0.00 0.00 0.00 0.00 0.00 0.00 0.00 0.00 0.00 0.00 0.00 0.00 0.00 0.00 0.00
0.00 0.00 0.00 0.00 0.00 0.00 0.00 0.00 0.00 0.00 0.00 0.00 0.00 0.00 0.00 0.00 0.00 0.00 0.00 0.00 0.00 0.00
0.00 0.00 0.00 0.00 0.00 0.00 0.00 0.00 0.00 0.00 0.00 0.00 0.00 0.00 0.00 0.00 0.00 0.00 0.00 0.00 0.00 0.00
0.00 0.00 0.00 0.00 0.00 0.00 0.00 0.00 0.00 0.00 0.00 0.00 0.00 0.00 0.00 0.00 0.00 0.00 0.00 0.00 0.00 0.00
0.00 0.00 0.00 0.00 0.00 0.00 0.00 0.00 0.00 0.00 0.00 0.00 0.00 0.00 0.00 0.00 0.00 0.00 0.00 0.00 0.00 0.00
0.00 0.00 0.00 0.00 0.00 0.00 0.00 0.00 0.00 0.00 0.00 0.00 0.00 0.00 0.00 0.00 0.00 0.00 0.00 0.00 0.00 0.00
0.00 0.00 0.00 0.00 0.00 0.00 0.00 0.00 0.00 0.00 0.00 0.00 0.00 0.00 0.00 0.00 0.00 0.00 0.00 0.00 0.00 0.00
0.00 0.00 0.00 0.00 0.00 0.00 0.00 0.00 0.00 0.00 0.00 0.00 0.00 0.00 0.00 0.00 0.00 0.00 0.00 0.00 0.00 0.00
0.00 0.00 0.00 0.00 0.00 0.00 0.00 0.00 0.00 0.00 0.00 0.00 0.00 0.00 0.00 0.00 0.00 0.00 0.00 0.00 0.00 0.00
0.00 0.00 0.00 0.00 0.00 0.00 0.00 0.00 0.00 0.00 0.00 0.00 0.00 0.00 0.00 0.00 0.00 0.00 0.00 0.00 0.00 0.00
0.00 0.00 0.00 0.00 0.00 0.00 0.00 0.00 0.00 0.00 0.00 0.00 0.00 0.00 0.00 0.00 0.00 0.00 0.00 0.00 0.00 0.00
MSLP
1014.13 1014.94 1015.57 1015.95 1016.45 1017.00 1017.38 1017.66 1017.80 1018.08 1018.20 1018.22 1018.25 1018.23 1018.16 1018.02 1018.05 1017.91 1017.75 1017.64 1017.59 1017.47
1014.70 1015.31 1015.91 1016.28 1016.66 1017.07 1017.49 1017.82 1018.06 1018.21 1018.37 1018.40 1018.33 1018.19 1018.08 1018.05 1017.96 1017.73 1017.47 1017.34 1017.14 1017.07
1015.24 1015.71 1016.17 1016.59 1016.99 1017.36 1017.76 1018.10 1018.22 1018.39 1018.41 1018.39 1018.33 1018.18 1018.06 1017.96 1017.65 1017.52 1017.23 1016.97 1016.83 1016.59
1015.76 1016.21 1016.59 1016.90 1017.26 1017.65 1017.98 1018.20 1018.34 1018.40 1018.38 1018.33 1018.18 1018.06 1018.00 1017.74 1017.38 1017.32 1017.09 1016.68 1016.47 1016.20
1016.18 1016.58 1016.96 1017.34 1017.62 1018.01 1018.20 1018.32 1018.46 1018.49 1018.42 1018.31 1018.18 1018.08 1017.88 1017.70 1017.35 1017.12 1016.85 1016.37 1016.08 1015.70
1016.55 1016.98 1017.36 1017.65 1018.03 1018.24 1018.33 1018.52 1018.58 1018.55 1018.51 1018.37 1018.29 1018.03 1017.65 1017.39 1017.06 1016.75 1016.41 1016.02 1015.67 1015.23
1016.86 1017.23 1017.55 1017.92 1018.20 1018.35 1018.52 1018.63 1018.66 1018.62 1018.58 1018.52 1018.24 1017.77 1017.38 1017.03 1016.75 1016.41 1016.01 1015.61 1015.22 1014.84
1017.01 1017.36 1017.73 1018.09 1018.33 1018.55 1018.62 1018.68 1018.73 1018.76 1018.62 1018.38 1017.99 1017.52 1016.95 1016.63 1016.38 1016.09 1015.85 1015.51 1015.03 1014.46
1017.11 1017.54 1017.93 1018.21 1018.49 1018.62 1018.67 1018.82 1018.95 1018.83 1018.59 1018.25 1017.83 1017.25 1016.65 1016.26 1016.04 1015.98 1015.73 1015.23 1014.53 1013.97
1017.27 1017.78 1018.08 1018.34 1018.55 1018.75 1019.02 1019.02 1018.87 1018.71 1018.47 1018.10 1017.66 1017.00 1016.44 1016.04 1015.87 1015.76 1015.33 1014.79 1014.21 1013.60
1017.46 1017.88 1018.21 1018.50 1018.88 1019.11 1019.04 1019.04 1018.96 1018.68 1018.35 1018.08 1017.57 1016.89 1016.29 1015.78 1015.50 1015.27 1014.85 1014.39 1013.88 1013.30
1017.56 1018.03 1018.47 1018.96 1019.18 1019.11 1019.18 1019.12 1018.91 1018.67 1018.39 1018.06 1017.42 1016.78 1016.11 1015.44 1015.09 1014.74 1014.35 1013.81 1013.30 1012.79
1017.81 1018.36 1018.83 1019.07 1019.20 1019.22 1019.19 1019.10 1018.92 1018.67 1018.22 1017.78 1017.34 1016.67 1015.88 1015.15 1014.67 1014.20 1013.53 1013.06 1012.54 1012.10
1018.25 1018.61 1018.92 1019.16 1019.28 1019.26 1019.25 1019.20 1019.04 1018.64 1018.13 1017.72 1017.15 1016.44 1015.64 1014.96 1014.23 1013.66 1012.95 1012.48 1011.95 1011.58
Thickness
5602 5595 5589 5585 5579 5571 5565 5560 5555 5550 5545 5542 5537 5533 5528 5524 5517 5511 5505 5499 5490 5483
5590 5584 5578 5574 5569 5563 5556 5551 5545 5540 5536 5532 5528 5523 5519 5512 5505 5499 5494 5486 5479 5471
5577 5572 5568 5564 5558 5552 5546 5540 5535 5530 5526 5522 5517 5512 5506 5499 5494 5487 5480 5474 5466 5459
5565 5561 5557 5553 5547 5541 5536 5530 5525 5521 5517 5512 5506 5500 5494 5488 5483 5474 5466 5459 5453 5446
5555 5550 5546 5541 5536 5530 5525 5521 5515 5510 5505 5500 5494 5487 5482 5475 5467 5460 5453 5447 5440 5434
5545 5540 5535 5530 5525 5520 5515 5509 5504 5499 5493 5487 5480 5475 5469 5461 5454 5447 5440 5433 5426 5418
5535 5530 5525 5520 5515 5509 5503 5497 5492 5486 5480 5473 5468 5463 5456 5449 5441 5434 5427 5419 5410 5401
5526 5521 5516 5510 5504 5498 5492 5486 5480 5474 5467 5461 5456 5452 5446 5438 5430 5422 5413 5402 5392 5382
5518 5513 5506 5500 5493 5486 5481 5474 5467 5461 5456 5449 5444 5439 5434 5427 5418 5405 5395 5387 5378 5365
5509 5502 5496 5489 5482 5475 5468 5461 5456 5450 5443 5436 5429 5426 5421 5413 5402 5390 5379 5368 5358 5347
5500 5492 5485 5478 5470 5463 5457 5450 5443 5437 5430 5422 5416 5413 5407 5401 5389 5376 5363 5349 5334 5320
5490 5482 5474 5465 5458 5452 5445 5438 5431 5423 5416 5409 5404 5400 5394 5387 5376 5364 5350 5334 5316 5299
5479 5470 5461 5454 5448 5440 5433 5425 5418 5411 5404 5398 5390 5384 5378 5371 5360 5350 5341 5324 5304 5286
5466 5458 5451 5443 5436 5428 5420 5412 5406 5400 5392 5384 5376 5368 5362 5353 5343 5332 5322 5305 5289 5274